RRR38WD EGVN-BIAR

Flight info

Callsign RRR38WD
Flight time 2h 49m
Altitude 38000
Route KISWO DCT MASOP DCT BRUCE DCT KUVOX DCT AKIVO/M078F380 DCT 62N013W DCT NB DCT PEXIL
Aircraft A400/H-SDE3FGHIRWY/L4T

Departure

Time 2026-05-04 10:49
Airport RAF Brize Norton (EGVN)

Arrival

Time 2026-05-04 13:39
Airport Akureyri International Airport (BIAR)
Time Latitude Longitude Altitude Speed Heading
2026-05-04 10:33 51.75751 -1.57261 276 ft 0 kts 289°
2026-05-04 10:44 51.75894 -1.57522 273 ft 16 kts 201°
2026-05-04 10:45 51.75781 -1.57579 273 ft 18 kts 197°
2026-05-04 10:45 51.75653 -1.57645 273 ft 20 kts 200°
2026-05-04 10:45 51.75520 -1.57734 273 ft 21 kts 206°
2026-05-04 10:45 51.75385 -1.57847 274 ft 22 kts 208°
2026-05-04 10:46 51.75242 -1.57969 274 ft 24 kts 208°
2026-05-04 10:46 51.75093 -1.58098 274 ft 25 kts 208°
2026-05-04 10:46 51.74940 -1.58230 274 ft 25 kts 207°
2026-05-04 10:46 51.74783 -1.58365 274 ft 26 kts 209°
2026-05-04 10:47 51.74647 -1.58529 273 ft 23 kts 251°
2026-05-04 10:47 51.74599 -1.58788 274 ft 27 kts 253°
2026-05-04 10:47 51.74545 -1.59080 273 ft 27 kts 253°
2026-05-04 10:47 51.74490 -1.59377 273 ft 28 kts 253°
2026-05-04 10:49 51.74992 -1.58325 458 ft 157 kts 73°
2026-05-04 10:49 51.75294 -1.56531 1375 ft 172 kts 74°
2026-05-04 10:50 51.75638 -1.54589 2314 ft 192 kts 69°
2026-05-04 10:51 51.80412 -1.55268 5017 ft 266 kts 296°
2026-05-04 10:52 51.80691 -1.58182 5785 ft 267 kts 261°
2026-05-04 10:52 51.79899 -1.60851 6563 ft 268 kts 229°
2026-05-04 10:52 51.78688 -1.63162 7298 ft 271 kts 236°
2026-05-04 10:54 51.78949 -1.85075 12568 ft 294 kts 268°
2026-05-04 10:54 51.78946 -1.88416 13236 ft 300 kts 268°
2026-05-04 10:56 51.86517 -2.07787 17726 ft 337 kts 325°
2026-05-04 10:56 51.88437 -2.09974 18395 ft 339 kts 323°
2026-05-04 10:56 51.90319 -2.12298 18994 ft 341 kts 321°
2026-05-04 10:57 51.92170 -2.14729 19610 ft 343 kts 319°
2026-05-04 10:57 51.93996 -2.17220 20232 ft 345 kts 318°
2026-05-04 10:57 51.95205 -2.18897 20656 ft 346 kts 317°
2026-05-04 10:57 51.97036 -2.21459 21302 ft 348 kts 317°
2026-05-04 10:58 51.98867 -2.24026 21945 ft 349 kts 317°
2026-05-04 10:58 52.00715 -2.26613 22617 ft 351 kts 317°
2026-05-04 10:58 52.02566 -2.29200 23306 ft 352 kts 317°
2026-05-04 10:58 52.04423 -2.31792 23943 ft 352 kts 317°
2026-05-04 10:59 52.06284 -2.34386 24536 ft 353 kts 317°
2026-05-04 10:59 52.08146 -2.36982 25139 ft 353 kts 317°
2026-05-04 10:59 52.10003 -2.39574 25761 ft 352 kts 317°
2026-05-04 10:59 52.11864 -2.42172 26394 ft 351 kts 317°
2026-05-04 11:00 52.13711 -2.44756 27042 ft 351 kts 317°
2026-05-04 11:01 52.26494 -2.62727 31663 ft 337 kts 322°
2026-05-04 11:02 52.28260 -2.65222 32305 ft 333 kts 322°
2026-05-04 11:02 52.29999 -2.67683 32980 ft 329 kts 322°
2026-05-04 11:05 52.58095 -3.07773 34855 ft 394 kts 322°
2026-05-04 11:06 52.60128 -3.10712 35440 ft 383 kts 322°
2026-05-04 11:06 52.62126 -3.13478 36034 ft 370 kts 328°
2026-05-04 11:06 52.64269 -3.15670 36656 ft 356 kts 334°
2026-05-04 11:06 52.66439 -3.17480 37295 ft 343 kts 337°
2026-05-04 11:08 52.81883 -3.28882 38065 ft 364 kts 336°
2026-05-04 11:10 52.98475 -3.41721 38065 ft 387 kts 336°
2026-05-04 11:12 53.15844 -3.55256 38072 ft 403 kts 336°
2026-05-04 11:12 53.18381 -3.57244 38067 ft 404 kts 336°
2026-05-04 11:12 53.23470 -3.61239 38072 ft 404 kts 336°
2026-05-04 11:13 53.28551 -3.65237 38069 ft 404 kts 336°
2026-05-04 11:13 53.33629 -3.69245 38072 ft 404 kts 336°
2026-05-04 11:14 53.38707 -3.73261 38075 ft 404 kts 336°
2026-05-04 11:16 53.58968 -3.89397 38080 ft 404 kts 336°
2026-05-04 11:16 53.64039 -3.93463 38081 ft 404 kts 336°
2026-05-04 11:17 53.69146 -3.97568 38077 ft 404 kts 335°
2026-05-04 11:19 53.89315 -4.13891 38080 ft 402 kts 335°
2026-05-04 11:19 53.94362 -4.18003 38080 ft 402 kts 335°
2026-05-04 11:20 53.99389 -4.22110 38072 ft 400 kts 335°
2026-05-04 11:20 54.04384 -4.26202 38074 ft 398 kts 335°
2026-05-04 11:22 54.24531 -4.41587 38064 ft 394 kts 340°
2026-05-04 11:23 54.29634 -4.44974 38074 ft 394 kts 340°
2026-05-04 11:25 54.47443 -4.57119 38071 ft 391 kts 339°
2026-05-04 11:25 54.52504 -4.60601 38065 ft 392 kts 339°
2026-05-04 11:27 54.75205 -4.76330 38063 ft 390 kts 338°
2026-05-04 11:28 54.80247 -4.79849 38069 ft 391 kts 338°
2026-05-04 11:28 54.85293 -4.83381 38071 ft 390 kts 338°
2026-05-04 11:29 54.90331 -4.86917 38081 ft 391 kts 338°
2026-05-04 11:29 54.95374 -4.90466 38065 ft 391 kts 337°
2026-05-04 11:33 55.30611 -5.15534 38075 ft 390 kts 337°
2026-05-04 11:33 55.35635 -5.19147 38074 ft 390 kts 337°
2026-05-04 11:34 55.40626 -5.22747 38076 ft 390 kts 337°
2026-05-04 11:34 55.45643 -5.26375 38076 ft 387 kts 337°
2026-05-04 11:35 55.50624 -5.29988 38073 ft 387 kts 337°
2026-05-04 11:35 55.55609 -5.33612 38066 ft 387 kts 337°
2026-05-04 11:36 55.60585 -5.37242 38086 ft 387 kts 337°
2026-05-04 11:36 55.65560 -5.40879 38071 ft 387 kts 337°
2026-05-04 11:37 55.70532 -5.44524 38075 ft 386 kts 336°
2026-05-04 11:37 55.75488 -5.48168 38076 ft 385 kts 336°
2026-05-04 11:38 55.80441 -5.51820 38076 ft 385 kts 336°
2026-05-04 11:38 55.85359 -5.55456 38078 ft 385 kts 336°
2026-05-04 11:39 55.90292 -5.59113 38074 ft 385 kts 336°
2026-05-04 11:41 56.07623 -5.72043 38067 ft 386 kts 336°
2026-05-04 11:41 56.12570 -5.75756 38079 ft 385 kts 336°
2026-05-04 11:42 56.17517 -5.79480 38087 ft 385 kts 335°
2026-05-04 11:42 56.22454 -5.83207 38075 ft 385 kts 335°
2026-05-04 11:43 56.27298 -5.87257 38072 ft 384 kts 332°
2026-05-04 11:43 56.32056 -5.91620 38072 ft 384 kts 331°
2026-05-04 11:44 56.36033 -5.95303 38072 ft 384 kts 331°
2026-05-04 11:44 56.40790 -5.99678 38067 ft 384 kts 331°
2026-05-04 11:45 56.45554 -6.04038 38079 ft 383 kts 331°
2026-05-04 11:45 56.50301 -6.08387 38068 ft 382 kts 331°
2026-05-04 11:46 56.55045 -6.12745 38069 ft 382 kts 331°
2026-05-04 11:46 56.59755 -6.17087 38067 ft 382 kts 331°
2026-05-04 11:47 56.64490 -6.21464 38069 ft 382 kts 330°
2026-05-04 11:47 56.69259 -6.25886 38085 ft 382 kts 330°
2026-05-04 11:48 56.73959 -6.30254 38060 ft 380 kts 330°
2026-05-04 11:48 56.78671 -6.34648 38059 ft 380 kts 330°
2026-05-04 11:49 56.83408 -6.39078 38057 ft 380 kts 330°
2026-05-04 11:49 56.88117 -6.43494 38060 ft 380 kts 330°
2026-05-04 11:50 56.92791 -6.47889 38054 ft 380 kts 330°
2026-05-04 11:50 56.97493 -6.52323 38055 ft 379 kts 329°
2026-05-04 11:51 57.02181 -6.56756 38053 ft 379 kts 329°
2026-05-04 11:51 57.06870 -6.61204 38053 ft 379 kts 329°
2026-05-04 11:52 57.11555 -6.65661 38046 ft 379 kts 329°
2026-05-04 11:52 57.16239 -6.70129 38045 ft 379 kts 329°
2026-05-04 11:53 57.20921 -6.74608 38061 ft 379 kts 329°
2026-05-04 11:53 57.25599 -6.79095 38042 ft 378 kts 328°
2026-05-04 11:55 57.44274 -6.97142 38025 ft 378 kts 328°
2026-05-04 11:56 57.48938 -7.01682 38025 ft 379 kts 328°
2026-05-04 11:56 57.53599 -7.06232 38022 ft 378 kts 328°
2026-05-04 11:57 57.58262 -7.10797 38022 ft 378 kts 328°
2026-05-04 11:57 57.62924 -7.15375 38021 ft 379 kts 328°
2026-05-04 11:58 57.67581 -7.19961 38023 ft 379 kts 328°
2026-05-04 11:58 57.72243 -7.24566 38052 ft 379 kts 327°
2026-05-04 11:59 57.76893 -7.29171 37995 ft 378 kts 327°
2026-05-04 11:59 57.81541 -7.33789 38018 ft 378 kts 327°
2026-05-04 12:00 57.86191 -7.38423 38015 ft 378 kts 327°
2026-05-04 12:00 57.90838 -7.43066 38019 ft 378 kts 327°
2026-05-04 12:01 57.95480 -7.47719 38014 ft 378 kts 327°
2026-05-04 12:02 58.11745 -7.63967 38015 ft 378 kts 328°
2026-05-04 12:03 58.16425 -7.68394 38002 ft 379 kts 328°
2026-05-04 12:03 58.21139 -7.72851 38010 ft 379 kts 328°
2026-05-04 12:04 58.25847 -7.77335 38008 ft 379 kts 328°
2026-05-04 12:04 58.30549 -7.81838 38007 ft 378 kts 328°
2026-05-04 12:05 58.35238 -7.86346 37993 ft 378 kts 328°
2026-05-04 12:05 58.39933 -7.90873 37997 ft 378 kts 328°
2026-05-04 12:06 58.44625 -7.95410 38003 ft 378 kts 328°
2026-05-04 12:06 58.49313 -7.99956 37987 ft 378 kts 328°
2026-05-04 12:07 58.53999 -8.04513 37993 ft 378 kts 328°
2026-05-04 12:07 58.58685 -8.09085 37993 ft 378 kts 328°
2026-05-04 12:08 58.63367 -8.13667 37993 ft 378 kts 328°
2026-05-04 12:08 58.68048 -8.18261 37994 ft 378 kts 328°
2026-05-04 12:09 58.72719 -8.22860 38000 ft 377 kts 328°
2026-05-04 12:09 58.77390 -8.27472 38020 ft 377 kts 327°
2026-05-04 12:10 58.82047 -8.32084 37996 ft 375 kts 327°
2026-05-04 12:10 58.86689 -8.36696 37995 ft 375 kts 327°
2026-05-04 12:11 58.91331 -8.41323 37996 ft 375 kts 327°
2026-05-04 12:11 58.95975 -8.45966 37997 ft 375 kts 327°
2026-05-04 12:12 59.00614 -8.50617 37997 ft 375 kts 327°
2026-05-04 12:12 59.05223 -8.55252 38009 ft 375 kts 327°
2026-05-04 12:14 59.23729 -8.74006 37999 ft 375 kts 327°
2026-05-04 12:15 59.28347 -8.78723 38005 ft 375 kts 327°
2026-05-04 12:15 59.32965 -8.83453 37999 ft 374 kts 327°
2026-05-04 12:16 59.37565 -8.88179 38000 ft 373 kts 327°
2026-05-04 12:16 59.42165 -8.92920 38001 ft 373 kts 327°
2026-05-04 12:17 59.46761 -8.97673 38003 ft 373 kts 327°
2026-05-04 12:17 59.51353 -9.02436 38003 ft 373 kts 327°
2026-05-04 12:18 59.55950 -9.07218 38007 ft 373 kts 327°
2026-05-04 12:18 59.60536 -9.12004 38009 ft 372 kts 327°
2026-05-04 12:19 59.65111 -9.16792 38011 ft 372 kts 327°
2026-05-04 12:19 59.69679 -9.21590 38013 ft 372 kts 327°
2026-05-04 12:20 59.74252 -9.26408 38013 ft 372 kts 327°
2026-05-04 12:20 59.78821 -9.31235 38013 ft 372 kts 327°
2026-05-04 12:21 59.83389 -9.36077 38016 ft 372 kts 327°
2026-05-04 12:21 59.87953 -9.40929 38017 ft 372 kts 327°
2026-05-04 12:22 59.92480 -9.45758 38018 ft 371 kts 327°
2026-05-04 12:22 59.96961 -9.50837 38023 ft 368 kts 321°
2026-05-04 12:23 60.01051 -9.56930 38023 ft 366 kts 317°
2026-05-04 12:23 60.05000 -9.63367 38018 ft 366 kts 316°
2026-05-04 12:24 60.08950 -9.69801 38018 ft 366 kts 317°
2026-05-04 12:24 60.12923 -9.76190 38019 ft 366 kts 317°
2026-05-04 12:25 60.16897 -9.82554 38022 ft 365 kts 317°
2026-05-04 12:25 60.20866 -9.88924 38023 ft 365 kts 317°
2026-05-04 12:26 60.24829 -9.95309 38017 ft 365 kts 317°
2026-05-04 12:26 60.28791 -10.01716 38022 ft 365 kts 317°
2026-05-04 12:27 60.32746 -10.08132 38020 ft 365 kts 317°
2026-05-04 12:27 60.36698 -10.14564 38056 ft 364 kts 317°
2026-05-04 12:28 60.40644 -10.21006 38024 ft 364 kts 317°
2026-05-04 12:28 60.44587 -10.27465 38019 ft 365 kts 317°
2026-05-04 12:29 60.48497 -10.33890 38028 ft 364 kts 317°
2026-05-04 12:29 60.52434 -10.40381 38021 ft 364 kts 317°
2026-05-04 12:30 60.56365 -10.46881 38028 ft 364 kts 317°
2026-05-04 12:30 60.60294 -10.53401 38022 ft 364 kts 317°
2026-05-04 12:31 60.63554 -10.58827 38049 ft 365 kts 317°
2026-05-04 12:31 60.67476 -10.65371 38026 ft 364 kts 316°
2026-05-04 12:32 60.73349 -10.75214 38023 ft 364 kts 316°
2026-05-04 12:33 60.77257 -10.81790 38023 ft 364 kts 316°
2026-05-04 12:33 60.81165 -10.88388 38026 ft 364 kts 316°
2026-05-04 12:34 60.85069 -10.95001 38025 ft 364 kts 316°
2026-05-04 12:34 60.88968 -11.01626 38061 ft 364 kts 316°
2026-05-04 12:35 60.92861 -11.08264 38020 ft 363 kts 316°
2026-05-04 12:35 60.96753 -11.14921 38022 ft 363 kts 316°
2026-05-04 12:36 61.00620 -11.21554 38028 ft 361 kts 316°
2026-05-04 12:36 61.04469 -11.28183 38029 ft 360 kts 316°
2026-05-04 12:37 61.08317 -11.34830 38028 ft 360 kts 316°
2026-05-04 12:37 61.12156 -11.41485 38032 ft 360 kts 316°
2026-05-04 12:38 61.15997 -11.48164 38026 ft 360 kts 316°
2026-05-04 12:38 61.19834 -11.54858 38031 ft 360 kts 316°
2026-05-04 12:39 61.23662 -11.61557 38029 ft 360 kts 316°
2026-05-04 12:39 61.27491 -11.68281 38032 ft 360 kts 316°
2026-05-04 12:40 61.31313 -11.75015 38034 ft 360 kts 316°
2026-05-04 12:40 61.35133 -11.81769 38032 ft 360 kts 316°
2026-05-04 12:41 61.38952 -11.88542 38029 ft 360 kts 316°
2026-05-04 12:41 61.42739 -11.95281 38034 ft 360 kts 316°
2026-05-04 12:42 61.46540 -12.02066 38036 ft 359 kts 316°
2026-05-04 12:42 61.50337 -12.08869 38034 ft 359 kts 315°
2026-05-04 12:43 61.54124 -12.15674 38045 ft 359 kts 315°
2026-05-04 12:43 61.57905 -12.22494 38042 ft 358 kts 315°
2026-05-04 12:44 61.61682 -12.29327 38045 ft 358 kts 315°
2026-05-04 12:44 61.65456 -12.36179 38045 ft 358 kts 315°
2026-05-04 12:45 61.69227 -12.43049 38045 ft 358 kts 315°
2026-05-04 12:45 61.72994 -12.49935 38056 ft 359 kts 315°
2026-05-04 12:46 61.76762 -12.56844 38055 ft 359 kts 315°
2026-05-04 12:46 61.80526 -12.63770 38056 ft 359 kts 315°
2026-05-04 12:47 61.84286 -12.70712 38061 ft 359 kts 315°
2026-05-04 12:47 61.88043 -12.77670 38061 ft 359 kts 315°
2026-05-04 12:48 61.91796 -12.84646 38062 ft 359 kts 315°
2026-05-04 12:48 61.95546 -12.91642 38071 ft 359 kts 315°
2026-05-04 12:49 61.99300 -12.98637 38071 ft 360 kts 317°
2026-05-04 12:49 62.03372 -13.04900 38080 ft 362 kts 322°
2026-05-04 12:50 62.07620 -13.10703 38072 ft 363 kts 323°
2026-05-04 12:50 62.11879 -13.16471 38075 ft 363 kts 323°
2026-05-04 12:51 62.16120 -13.22316 38084 ft 362 kts 322°
2026-05-04 12:51 62.20342 -13.28206 38108 ft 363 kts 322°
2026-05-04 12:52 62.24554 -13.34114 38078 ft 361 kts 322°
2026-05-04 12:52 62.28758 -13.40030 38086 ft 361 kts 322°
2026-05-04 12:53 62.32958 -13.45957 38096 ft 361 kts 322°
2026-05-04 12:53 62.37153 -13.51898 38089 ft 361 kts 322°
2026-05-04 12:54 62.41347 -13.57857 38103 ft 361 kts 322°
2026-05-04 12:54 62.45538 -13.63831 38087 ft 361 kts 322°
2026-05-04 12:55 62.49692 -13.69772 38099 ft 359 kts 322°
2026-05-04 12:55 62.53876 -13.75775 38098 ft 358 kts 322°
2026-05-04 12:56 62.58026 -13.81753 38099 ft 358 kts 322°
2026-05-04 12:56 62.62170 -13.87744 38098 ft 358 kts 322°
2026-05-04 12:57 62.66287 -13.93713 38101 ft 358 kts 322°
2026-05-04 12:57 62.70427 -13.99737 38110 ft 358 kts 322°
2026-05-04 12:58 62.74565 -14.05779 38126 ft 358 kts 322°
2026-05-04 12:58 62.78695 -14.11828 38105 ft 357 kts 322°
2026-05-04 12:59 62.82818 -14.17889 38113 ft 357 kts 322°
2026-05-04 12:59 62.86934 -14.23960 38113 ft 357 kts 322°
2026-05-04 13:00 62.91049 -14.30052 38117 ft 357 kts 322°
2026-05-04 13:00 62.95153 -14.36147 38119 ft 356 kts 322°
2026-05-04 13:01 62.99260 -14.42269 38119 ft 356 kts 322°
2026-05-04 13:01 63.03364 -14.48407 38122 ft 357 kts 321°
2026-05-04 13:02 63.07438 -14.54522 38120 ft 357 kts 321°
2026-05-04 13:02 63.11543 -14.60703 38124 ft 357 kts 321°
2026-05-04 13:03 63.15642 -14.66897 38128 ft 357 kts 321°
2026-05-04 13:03 63.19739 -14.73110 38126 ft 357 kts 321°
2026-05-04 13:04 63.23834 -14.79342 38130 ft 357 kts 321°
2026-05-04 13:04 63.27950 -14.85629 38165 ft 357 kts 322°
2026-05-04 13:05 63.32034 -14.91891 38134 ft 360 kts 322°
2026-05-04 13:05 63.36161 -14.98237 38129 ft 361 kts 322°
2026-05-04 13:06 63.40292 -15.04610 38129 ft 361 kts 322°
2026-05-04 13:06 63.44419 -15.11001 38135 ft 361 kts 322°
2026-05-04 13:07 63.48540 -15.17407 38136 ft 361 kts 321°
2026-05-04 13:07 63.52660 -15.23836 38136 ft 361 kts 321°
2026-05-04 13:08 63.56779 -15.30285 38147 ft 361 kts 322°
2026-05-04 13:08 63.60892 -15.36748 38141 ft 360 kts 322°
2026-05-04 13:09 63.64998 -15.43222 38144 ft 361 kts 322°
2026-05-04 13:09 63.69104 -15.49721 38146 ft 361 kts 322°
2026-05-04 13:10 63.73203 -15.56232 38144 ft 360 kts 322°
2026-05-04 13:10 63.77302 -15.62767 38138 ft 360 kts 321°
2026-05-04 13:11 63.81399 -15.69321 38135 ft 360 kts 321°
2026-05-04 13:11 63.85488 -15.75888 38141 ft 360 kts 321°
2026-05-04 13:12 63.89575 -15.82473 38131 ft 359 kts 321°
2026-05-04 13:12 63.93641 -15.89048 38146 ft 358 kts 321°
2026-05-04 13:13 63.97671 -15.95591 38147 ft 358 kts 321°
2026-05-04 13:13 64.01730 -16.02207 38146 ft 360 kts 321°
2026-05-04 13:14 64.05811 -16.08881 38145 ft 361 kts 321°
2026-05-04 13:14 64.09891 -16.15577 38171 ft 362 kts 321°
2026-05-04 13:15 64.13973 -16.22301 38159 ft 361 kts 321°
2026-05-04 13:15 64.18050 -16.29039 38157 ft 361 kts 321°
2026-05-04 13:16 64.22121 -16.35795 38183 ft 361 kts 321°
2026-05-04 13:16 64.26189 -16.42573 38165 ft 361 kts 321°
2026-05-04 13:17 64.30256 -16.49373 38183 ft 362 kts 321°
2026-05-04 13:17 64.33633 -16.55039 38197 ft 361 kts 321°
2026-05-04 13:18 64.37751 -16.61562 38207 ft 363 kts 325°
2026-05-04 13:18 64.42098 -16.67493 38125 ft 364 kts 326°
2026-05-04 13:18 64.44296 -16.70453 37711 ft 365 kts 326°
2026-05-04 13:19 64.46488 -16.73402 37198 ft 363 kts 326°
2026-05-04 13:19 64.48661 -16.76328 36670 ft 361 kts 325°
2026-05-04 13:19 64.50828 -16.79252 35961 ft 360 kts 324°
2026-05-04 13:19 64.52987 -16.82172 35248 ft 358 kts 324°
2026-05-04 13:20 64.55123 -16.85063 34572 ft 353 kts 323°
2026-05-04 13:20 64.57231 -16.87921 33826 ft 350 kts 323°
2026-05-04 13:20 64.59307 -16.90741 33027 ft 343 kts 323°
2026-05-04 13:20 64.61358 -16.93534 32244 ft 339 kts 323°
2026-05-04 13:21 64.63381 -16.96295 31489 ft 335 kts 323°
2026-05-04 13:21 64.65377 -16.99024 30812 ft 331 kts 323°
2026-05-04 13:21 64.67354 -17.01733 30051 ft 327 kts 323°
2026-05-04 13:21 64.69308 -17.04414 29195 ft 324 kts 323°
2026-05-04 13:22 64.71238 -17.07066 28369 ft 319 kts 323°
2026-05-04 13:22 64.73137 -17.09677 27569 ft 314 kts 323°
2026-05-04 13:22 64.75005 -17.12250 26782 ft 309 kts 322°
2026-05-04 13:22 64.76843 -17.14788 26039 ft 306 kts 322°
2026-05-04 13:23 64.78654 -17.17292 25348 ft 299 kts 322°
2026-05-04 13:23 64.80436 -17.19759 24669 ft 294 kts 322°
2026-05-04 13:23 64.82185 -17.22185 24006 ft 290 kts 322°
2026-05-04 13:23 64.83905 -17.24576 23254 ft 286 kts 322°
2026-05-04 13:24 64.85609 -17.26951 22472 ft 285 kts 322°
2026-05-04 13:24 64.87315 -17.29332 21714 ft 284 kts 323°
2026-05-04 13:24 64.89015 -17.31708 20978 ft 285 kts 323°
2026-05-04 13:25 64.92431 -17.36492 19582 ft 286 kts 325°
2026-05-04 13:25 64.94168 -17.38932 18883 ft 296 kts 326°
2026-05-04 13:25 64.95957 -17.41447 18146 ft 303 kts 327°
2026-05-04 13:25 64.97780 -17.44009 17349 ft 305 kts 327°
2026-05-04 13:26 64.99606 -17.46578 16576 ft 305 kts 328°
2026-05-04 13:26 65.01425 -17.49141 15824 ft 304 kts 328°
2026-05-04 13:26 65.03241 -17.51704 15090 ft 303 kts 329°
2026-05-04 13:26 65.05053 -17.54268 14369 ft 303 kts 329°
2026-05-04 13:27 65.06857 -17.56824 13612 ft 302 kts 330°
2026-05-04 13:27 65.08629 -17.59340 12849 ft 299 kts 330°
2026-05-04 13:27 65.10385 -17.61838 12346 ft 289 kts 330°
2026-05-04 13:27 65.12078 -17.64251 11932 ft 278 kts 330°
2026-05-04 13:28 65.13721 -17.66594 11519 ft 273 kts 330°
2026-05-04 13:28 65.15341 -17.68906 11122 ft 270 kts 330°
2026-05-04 13:28 65.16946 -17.71202 10737 ft 268 kts 330°
2026-05-04 13:28 65.18542 -17.73486 10356 ft 267 kts 330°
2026-05-04 13:29 65.20121 -17.75751 9957 ft 265 kts 330°
2026-05-04 13:29 65.21703 -17.78023 9517 ft 264 kts 330°
2026-05-04 13:29 65.23273 -17.80280 9098 ft 263 kts 330°
2026-05-04 13:29 65.24832 -17.82525 8681 ft 261 kts 330°
2026-05-04 13:30 65.26384 -17.84765 8272 ft 259 kts 330°
2026-05-04 13:30 65.27919 -17.86983 7870 ft 257 kts 331°
2026-05-04 13:30 65.29443 -17.89187 7484 ft 255 kts 331°
2026-05-04 13:30 65.30953 -17.91375 7079 ft 253 kts 331°
2026-05-04 13:31 65.32453 -17.93550 6710 ft 251 kts 331°
2026-05-04 13:31 65.33944 -17.95714 6426 ft 250 kts 331°
2026-05-04 13:31 65.35431 -17.97875 6139 ft 249 kts 330°
2026-05-04 13:31 65.36906 -18.00022 5856 ft 248 kts 330°
2026-05-04 13:32 65.38381 -18.02171 5612 ft 247 kts 330°
2026-05-04 13:32 65.39856 -18.04285 5338 ft 246 kts 333°
2026-05-04 13:32 65.41498 -18.05228 5065 ft 245 kts 355°
2026-05-04 13:32 65.43198 -18.05451 5004 ft 244 kts 357°
2026-05-04 13:33 65.44888 -18.05540 4988 ft 233 kts 358°
2026-05-04 13:33 65.46363 -18.05597 4977 ft 190 kts 358°
2026-05-04 13:33 65.47587 -18.05649 4996 ft 165 kts 357°
2026-05-04 13:33 65.48667 -18.05597 4769 ft 145 kts
2026-05-04 13:34 65.49594 -18.05453 4475 ft 127 kts
2026-05-04 13:34 65.50456 -18.05310 4208 ft 122 kts
2026-05-04 13:34 65.51271 -18.05025 3943 ft 115 kts
2026-05-04 13:34 65.52066 -18.04737 3649 ft 115 kts
2026-05-04 13:35 65.52851 -18.04635 3202 ft 111 kts 357°
2026-05-04 13:35 65.54428 -18.05029 2704 ft 118 kts 347°
2026-05-04 13:35 65.55252 -18.05223 2500 ft 119 kts 352°
2026-05-04 13:36 65.56069 -18.05325 2189 ft 119 kts 352°
2026-05-04 13:36 65.56879 -18.05530 1876 ft 115 kts 352°
2026-05-04 13:36 65.57679 -18.05704 1694 ft 115 kts 353°
2026-05-04 13:36 65.58474 -18.05860 1513 ft 115 kts 355°
2026-05-04 13:37 65.59257 -18.05978 1295 ft 112 kts 354°
2026-05-04 13:37 65.60033 -18.06126 1141 ft 111 kts 353°
2026-05-04 13:37 65.60809 -18.06295 939 ft 113 kts 353°
2026-05-04 13:37 65.61331 -18.06395 810 ft 111 kts 354°
2026-05-04 13:38 65.62349 -18.06601 572 ft 110 kts 355°
2026-05-04 13:38 65.63104 -18.06727 418 ft 109 kts 355°
2026-05-04 13:38 65.63853 -18.06884 202 ft 108 kts 358°
2026-05-04 13:38 65.64620 -18.07015 60 ft 111 kts 358°
2026-05-04 13:39 65.65274 -18.07124 24 ft 63 kts 354°
2026-05-04 13:39 65.65443 -18.07164 24 ft 5 kts 353°
2026-05-04 13:39 65.65478 -18.07230 27 ft 6 kts 279°
2026-05-04 13:39 65.65477 -18.07355 27 ft 10 kts 266°
2026-05-04 13:40 65.65436 -18.07412 27 ft 12 kts 174°
2026-05-04 13:40 65.65411 -18.07464 27 ft 8 kts 269°
2026-05-04 13:40 65.65421 -18.07474 27 ft 0 kts 13°
2026-05-04 13:40 65.65421 -18.07473 27 ft 0 kts 15°